Installed distributed generation trends

From www.emi.ea.govt.nz provided by the Electricity Authority (New Zealand)
Run at: 20240716150220

Parameters
Date range,01 Sep 2013 - 30 Jun 2024
Region type,New Zealand
Market segment,All ICPs
Capacity,All combined
Fuel type,All combined

Month end,Region ID,Region name,Capacity,Fuel type,ICP count,ICP uptake rate (%),Total capacity installed (MW),Avg. capacity installed (kW),ICP count - new installations,Avg. capacity - new installations (kW)
31/08/2013,NZ,New Zealand,All combined,All combined,1822,0.09055,1273.063,698.718,666,443.608
30/09/2013,NZ,New Zealand,All combined,All combined,2071,0.10296,1279.915,618.018,238,24.232
31/10/2013,NZ,New Zealand,All combined,All combined,2252,0.11195,1279.685,568.244,182,4.725
30/11/2013,NZ,New Zealand,All combined,All combined,2491,0.12373,1277.529,512.858,247,5.238
31/12/2013,NZ,New Zealand,All combined,All combined,2668,0.13240,1278.251,479.105,184,4.795
31/01/2014,NZ,New Zealand,All combined,All combined,2848,0.14122,1278.981,449.080,180,3.629
28/02/2014,NZ,New Zealand,All combined,All combined,3126,0.15499,1279.904,409.438,282,3.591
31/03/2014,NZ,New Zealand,All combined,All combined,3374,0.16715,1281.693,379.873,253,7.718
30/04/2014,NZ,New Zealand,All combined,All combined,3576,0.17700,1342.541,375.431,208,294.699
31/05/2014,NZ,New Zealand,All combined,All combined,3821,0.18895,1343.437,351.593,244,3.949
30/06/2014,NZ,New Zealand,All combined,All combined,4119,0.20350,1350.579,327.890,300,3.839
31/07/2014,NZ,New Zealand,All combined,All combined,4431,0.21876,1351.743,305.065,320,3.652
31/08/2014,NZ,New Zealand,All combined,All combined,4671,0.23036,1350.031,289.024,244,34.762
30/09/2014,NZ,New Zealand,All combined,All combined,4945,0.24359,1351.091,273.224,277,3.834
31/10/2014,NZ,New Zealand,All combined,All combined,5259,0.25881,1349.388,256.586,322,14.023
30/11/2014,NZ,New Zealand,All combined,All combined,5600,0.27533,1353.088,241.623,342,10.946
31/12/2014,NZ,New Zealand,All combined,All combined,5908,0.29008,1354.488,229.263,308,4.458
31/01/2015,NZ,New Zealand,All combined,All combined,6160,0.30226,1353.738,219.763,254,4.107
28/02/2015,NZ,New Zealand,All combined,All combined,6404,0.31400,1387.088,216.597,251,132.994
31/03/2015,NZ,New Zealand,All combined,All combined,6684,0.32747,1388.247,207.697,282,3.768
30/04/2015,NZ,New Zealand,All combined,All combined,6945,0.33990,1386.821,199.686,275,3.539
31/05/2015,NZ,New Zealand,All combined,All combined,7216,0.35282,1389.376,192.541,275,5.141
30/06/2015,NZ,New Zealand,All combined,All combined,7577,0.37016,1390.785,183.554,361,4.028
31/07/2015,NZ,New Zealand,All combined,All combined,8000,0.39050,1392.320,174.040,426,3.773
31/08/2015,NZ,New Zealand,All combined,All combined,8329,0.40618,1403.184,168.470,329,14.767
30/09/2015,NZ,New Zealand,All combined,All combined,8746,0.42607,1400.881,160.174,415,4.249
31/10/2015,NZ,New Zealand,All combined,All combined,9096,0.44262,1401.341,154.061,349,3.876
30/11/2015,NZ,New Zealand,All combined,All combined,9478,0.46082,1402.334,147.957,386,3.756
31/12/2015,NZ,New Zealand,All combined,All combined,9902,0.48080,1404.945,141.885,429,8.117
31/01/2016,NZ,New Zealand,All combined,All combined,10150,0.49263,1406.401,138.562,267,5.481
29/02/2016,NZ,New Zealand,All combined,All combined,10482,0.50830,1402.381,133.789,354,4.610
31/03/2016,NZ,New Zealand,All combined,All combined,10820,0.52456,1405.553,129.903,345,8.701
30/04/2016,NZ,New Zealand,All combined,All combined,11175,0.54117,1409.686,126.146,356,11.268
31/05/2016,NZ,New Zealand,All combined,All combined,11551,0.55880,1408.908,121.973,380,7.780
30/06/2016,NZ,New Zealand,All combined,All combined,11941,0.57733,1413.560,118.379,393,7.332
31/07/2016,NZ,New Zealand,All combined,All combined,12300,0.59403,1418.134,115.295,373,13.247
31/08/2016,NZ,New Zealand,All combined,All combined,12705,0.61303,1422.258,111.945,407,7.337
30/09/2016,NZ,New Zealand,All combined,All combined,13093,0.63096,1424.236,108.778,410,5.881
31/10/2016,NZ,New Zealand,All combined,All combined,13442,0.64711,1424.515,105.975,350,5.046
30/11/2016,NZ,New Zealand,All combined,All combined,13835,0.66534,1426.275,103.092,394,4.420
31/12/2016,NZ,New Zealand,All combined,All combined,14199,0.68173,1436.596,101.176,366,28.121
31/01/2017,NZ,New Zealand,All combined,All combined,14462,0.69415,1497.244,103.530,267,226.504
28/02/2017,NZ,New Zealand,All combined,All combined,14779,0.70847,1496.649,101.269,321,7.587
31/03/2017,NZ,New Zealand,All combined,All combined,15156,0.72581,1496.437,98.736,361,6.036
30/04/2017,NZ,New Zealand,All combined,All combined,15511,0.74227,1498.015,96.578,363,6.563
31/05/2017,NZ,New Zealand,All combined,All combined,15879,0.75916,1499.216,94.415,376,3.568
30/06/2017,NZ,New Zealand,All combined,All combined,16334,0.78010,1501.246,91.909,462,6.667
31/07/2017,NZ,New Zealand,All combined,All combined,16749,0.79916,1504.929,89.852,422,8.588
31/08/2017,NZ,New Zealand,All combined,All combined,17258,0.82270,1506.179,87.274,522,8.665
30/09/2017,NZ,New Zealand,All combined,All combined,17672,0.84136,1508.277,85.348,420,5.336
31/10/2017,NZ,New Zealand,All combined,All combined,18033,0.85751,1511.247,83.805,374,9.300
30/11/2017,NZ,New Zealand,All combined,All combined,18510,0.87897,1511.542,81.661,480,4.069
31/12/2017,NZ,New Zealand,All combined,All combined,18877,0.89507,1513.095,80.155,377,5.236
31/01/2018,NZ,New Zealand,All combined,All combined,19171,0.90886,1514.392,78.994,305,4.297
28/02/2018,NZ,New Zealand,All combined,All combined,19539,0.92533,1516.290,77.603,373,3.911
31/03/2018,NZ,New Zealand,All combined,All combined,19978,0.94502,1545.305,77.350,426,69.795
30/04/2018,NZ,New Zealand,All combined,All combined,20312,0.95988,1546.818,76.153,335,4.472
31/05/2018,NZ,New Zealand,All combined,All combined,20673,0.97573,1553.124,75.128,364,17.335
30/06/2018,NZ,New Zealand,All combined,All combined,20973,0.98881,1555.265,74.156,298,6.868
31/07/2018,NZ,New Zealand,All combined,All combined,21351,1.00542,1557.225,72.935,388,5.066
31/08/2018,NZ,New Zealand,All combined,All combined,21780,1.02442,1560.470,71.647,437,8.363
30/09/2018,NZ,New Zealand,All combined,All combined,22246,1.04538,1562.907,70.256,457,5.228
31/10/2018,NZ,New Zealand,All combined,All combined,22700,1.06578,1567.245,69.042,458,9.407
30/11/2018,NZ,New Zealand,All combined,All combined,23144,1.08519,1572.332,67.937,464,6.377
31/12/2018,NZ,New Zealand,All combined,All combined,23542,1.10235,1576.538,66.967,414,15.076
31/01/2019,NZ,New Zealand,All combined,All combined,23865,1.11722,1579.809,66.198,320,9.800
28/02/2019,NZ,New Zealand,All combined,All combined,24221,1.13277,1590.491,65.666,361,29.158
31/03/2019,NZ,New Zealand,All combined,All combined,24633,1.15042,1591.853,64.623,430,5.328
30/04/2019,NZ,New Zealand,All combined,All combined,24989,1.16590,1595.371,63.843,361,8.111
31/05/2019,NZ,New Zealand,All combined,All combined,25420,1.18470,1599.332,62.916,438,8.684
30/06/2019,NZ,New Zealand,All combined,All combined,25729,1.19777,1609.111,62.541,317,30.525
31/07/2019,NZ,New Zealand,All combined,All combined,26060,1.21189,1612.411,61.873,355,9.098
31/08/2019,NZ,New Zealand,All combined,All combined,26431,1.22755,1612.137,60.994,381,5.254
30/09/2019,NZ,New Zealand,All combined,All combined,26777,1.24215,1615.634,60.337,356,8.343
31/10/2019,NZ,New Zealand,All combined,All combined,27188,1.25994,1617.974,59.511,427,5.306
30/11/2019,NZ,New Zealand,All combined,All combined,27557,1.27499,1620.655,58.811,381,7.507
31/12/2019,NZ,New Zealand,All combined,All combined,27884,1.28810,1626.952,58.347,327,19.072
31/01/2020,NZ,New Zealand,All combined,All combined,28210,1.30291,1631.470,57.833,344,12.994
29/02/2020,NZ,New Zealand,All combined,All combined,28556,1.31749,1633.672,57.209,366,5.842
31/03/2020,NZ,New Zealand,All combined,All combined,28836,1.32831,1635.221,56.708,282,6.124
30/04/2020,NZ,New Zealand,All combined,All combined,28919,1.33183,1638.137,56.646,87,6.973
31/05/2020,NZ,New Zealand,All combined,All combined,29301,1.34709,1641.332,56.016,395,5.544
30/06/2020,NZ,New Zealand,All combined,All combined,29711,1.36506,1640.062,55.201,420,6.249
31/07/2020,NZ,New Zealand,All combined,All combined,30116,1.38154,1644.273,54.598,423,10.967
31/08/2020,NZ,New Zealand,All combined,All combined,30556,1.39961,1647.626,53.922,443,9.148
30/09/2020,NZ,New Zealand,All combined,All combined,31020,1.41905,1660.764,53.538,478,28.239
31/10/2020,NZ,New Zealand,All combined,All combined,31509,1.43934,1664.666,52.831,503,7.089
30/11/2020,NZ,New Zealand,All combined,All combined,32025,1.46054,1699.636,53.072,533,74.546
31/12/2020,NZ,New Zealand,All combined,All combined,32503,1.47982,1702.886,52.392,486,6.699
31/01/2021,NZ,New Zealand,All combined,All combined,32824,1.49399,1706.452,51.988,327,12.040
28/02/2021,NZ,New Zealand,All combined,All combined,33224,1.51028,1709.381,51.450,416,7.284
31/03/2021,NZ,New Zealand,All combined,All combined,33768,1.53299,1714.518,50.773,555,7.853
30/04/2021,NZ,New Zealand,All combined,All combined,34281,1.55407,1718.167,50.120,535,8.382
31/05/2021,NZ,New Zealand,All combined,All combined,34830,1.57648,1723.169,49.474,567,8.286
30/06/2021,NZ,New Zealand,All combined,All combined,35426,1.60155,1739.277,49.096,605,26.576
31/07/2021,NZ,New Zealand,All combined,All combined,36098,1.62984,1746.608,48.385,672,10.134
31/08/2021,NZ,New Zealand,All combined,All combined,36530,1.64783,1749.543,47.893,435,5.726
30/09/2021,NZ,New Zealand,All combined,All combined,37064,1.66966,1753.181,47.301,542,6.555
31/10/2021,NZ,New Zealand,All combined,All combined,37733,1.69716,1756.154,46.542,676,6.095
30/11/2021,NZ,New Zealand,All combined,All combined,38652,1.73603,1762.415,45.597,930,6.601
31/12/2021,NZ,New Zealand,All combined,All combined,39347,1.76474,1769.333,44.967,706,7.897
31/01/2022,NZ,New Zealand,All combined,All combined,39970,1.79300,1774.377,44.393,638,7.623
28/02/2022,NZ,New Zealand,All combined,All combined,40713,1.82434,1780.408,43.731,754,7.566
31/03/2022,NZ,New Zealand,All combined,All combined,41603,1.86206,1787.797,42.973,902,14.170
30/04/2022,NZ,New Zealand,All combined,All combined,42337,1.89250,1791.038,42.304,747,7.393
31/05/2022,NZ,New Zealand,All combined,All combined,43241,1.92995,1798.376,41.590,916,7.978
30/06/2022,NZ,New Zealand,All combined,All combined,43972,1.96003,1804.581,41.039,737,8.278
31/07/2022,NZ,New Zealand,All combined,All combined,44742,1.99165,1815.423,40.575,786,7.483
31/08/2022,NZ,New Zealand,All combined,All combined,45770,2.03466,1826.301,39.902,1040,10.361
30/09/2022,NZ,New Zealand,All combined,All combined,46666,2.07107,1837.935,39.385,896,9.717
31/10/2022,NZ,New Zealand,All combined,All combined,47561,2.10781,1843.762,38.766,920,7.195
30/11/2022,NZ,New Zealand,All combined,All combined,48660,2.15405,1851.475,38.049,1106,6.963
31/12/2022,NZ,New Zealand,All combined,All combined,49556,2.18977,1858.181,37.497,913,7.365
31/01/2023,NZ,New Zealand,All combined,All combined,50156,2.21567,1862.379,37.132,617,6.829
28/02/2023,NZ,New Zealand,All combined,All combined,50985,2.24818,1867.083,36.620,864,7.755
31/03/2023,NZ,New Zealand,All combined,All combined,52055,2.29256,1878.003,36.077,1080,9.625
30/04/2023,NZ,New Zealand,All combined,All combined,52896,2.32764,1884.856,35.633,855,7.633
31/05/2023,NZ,New Zealand,All combined,All combined,53859,2.36664,1865.669,34.640,992,8.069
30/06/2023,NZ,New Zealand,All combined,All combined,54801,2.40517,1839.212,33.562,958,9.578
31/07/2023,NZ,New Zealand,All combined,All combined,55622,2.43804,1795.589,32.282,836,7.669
31/08/2023,NZ,New Zealand,All combined,All combined,56677,2.48075,1847.294,32.593,1065,48.635
30/09/2023,NZ,New Zealand,All combined,All combined,57744,2.52415,1854.316,32.113,1073,6.139
31/10/2023,NZ,New Zealand,All combined,All combined,58807,2.56776,1864.715,31.709,1081,9.565
30/11/2023,NZ,New Zealand,All combined,All combined,60070,2.62016,1903.730,31.692,1274,30.695
31/12/2023,NZ,New Zealand,All combined,All combined,60972,2.65555,1910.930,31.341,911,7.408
31/01/2024,NZ,New Zealand,All combined,All combined,61656,2.68558,1916.700,31.087,707,8.122
29/02/2024,NZ,New Zealand,All combined,All combined,62656,2.72574,1948.161,31.093,1009,30.786
31/03/2024,NZ,New Zealand,All combined,All combined,63621,2.76440,1955.454,30.736,991,7.714
30/04/2024,NZ,New Zealand,All combined,All combined,64469,2.79835,1963.704,30.460,920,9.080
31/05/2024,NZ,New Zealand,All combined,All combined,65359,2.83374,1974.863,30.216,977,11.532
30/06/2024,NZ,New Zealand,All combined,All combined,66071,2.86203,1990.487,30.126,804,26.200
